When you browse on this site, cookies collect data to enhance your experience and personalize the content and advertising you see.
Visit our Privacy Policy to learn more. By continuing to use the site, you agree to this use of cookies and data.
  • In Switzerland
  • List of Countries
  • For 7 days
  • Water Temperature
  • Satellite Maps
  • Weather Map
  • Weather Widgets
  • user-avatar
    Login

    Hourly Weather Nurtingen

    Today, 26 May, Sunday

    Time Temperature Precipitation Wind Pressure Humidity
    00:00 +12°C° 0 mm 1 mps 737 mmHg 87%
    01:00 +11°C° 0 mm 1 mps 738 mmHg 90%
    02:00 +11°C° 0 mm 1 mps 738 mmHg 90%
    03:00 +11°C° 0 mm 1 mps 738 mmHg 91%
    04:00 +11°C° 0 mm 1 mps 738 mmHg 91%
    05:00 +12°C° 0 mm 1 mps 738 mmHg 88%
    06:00 +12°C° 0 mm 0 mps 738 mmHg 85%
    07:00 +14°C° 0 mm 0 mps 738 mmHg 81%
    08:00 +18°C° 0 mm 1 mps 738 mmHg 74%
    09:00 +20°C° 0 mm 1 mps 738 mmHg 67%
    10:00 +21°C° 0 mm 1 mps 738 mmHg 60%
    11:00 +22°C° 0 mm 1 mps 737 mmHg 57%
    12:00 +23°C° 0 mm 1 mps 737 mmHg 54%
    13:00 +23°C° 0 mm 2 mps 737 mmHg 51%
    14:00 +23°C° 0 mm 2 mps 736 mmHg 52%
    15:00 +23°C° 0 mm 2 mps 736 mmHg 53%
    16:00 +23°C° 0 mm 2 mps 736 mmHg 54%
    17:00 +21°C° 0 mm 2 mps 736 mmHg 60%
    18:00 +20°C° 0 mm 2 mps 735 mmHg 66%
    19:00 +19°C° 0 mm 2 mps 735 mmHg 71%
    20:00 +18°C° 0 mm 1 mps 735 mmHg 75%
    21:00 +16°C° 0 mm 1 mps 735 mmHg 79%
    22:00 +14°C° 0 mm 1 mps 735 mmHg 82%
    23:00 +14°C° 0 mm 1 mps 735 mmHg 82%

    Tomorrow, 27 May, Monday

    Time Temperature Precipitation Wind Pressure Humidity
    00:00 +14°C° 0 mm 1 mps 735 mmHg 82%
    01:00 +14°C° 0 mm 1 mps 735 mmHg 83%
    02:00 +13°C° 0 mm 1 mps 735 mmHg 84%
    03:00 +13°C° 0 mm 1 mps 735 mmHg 86%
    04:00 +12°C° 0 mm 1 mps 734 mmHg 87%
    05:00 +13°C° 0 mm 1 mps 734 mmHg 83%
    06:00 +15°C° 0 mm 1 mps 734 mmHg 79%
    07:00 +16°C° 0 mm 1 mps 734 mmHg 75%
    08:00 +19°C° 0 mm 1 mps 734 mmHg 70%
    09:00 +20°C° 0 mm 1 mps 734 mmHg 65%
    10:00 +21°C° 0 mm 2 mps 734 mmHg 60%
    11:00 +21°C° 0.1 mm 2 mps 734 mmHg 61%
    12:00 +21°C° 0.1 mm 2 mps 733 mmHg 63%
    13:00 +21°C° 0.1 mm 3 mps 733 mmHg 64%
    14:00 +21°C° 0.4 mm 3 mps 733 mmHg 70%
    15:00 +20°C° 0.4 mm 3 mps 732 mmHg 76%
    16:00 +19°C° 0.4 mm 3 mps 732 mmHg 81%
    17:00 +19°C° 0.2 mm 3 mps 732 mmHg 83%
    18:00 +18°C° 0.2 mm 2 mps 732 mmHg 85%
    19:00 +18°C° 0.2 mm 2 mps 732 mmHg 87%
    20:00 +17°C° 0.1 mm 2 mps 732 mmHg 89%
    21:00 +16°C° 0.1 mm 2 mps 732 mmHg 90%
    22:00 +15°C° 0.1 mm 1 mps 732 mmHg 91%
    23:00 +15°C° 0 mm 2 mps 732 mmHg 92%

    Day after tomorrow, 28 May, Tuesday

    Time Temperature Precipitation Wind Pressure Humidity
    00:00 +14°C° 0 mm 2 mps 732 mmHg 93%
    01:00 +14°C° 0 mm 2 mps 731 mmHg 94%
    02:00 +13°C° 0 mm 2 mps 731 mmHg 95%
    03:00 +13°C° 0 mm 2 mps 731 mmHg 95%
    04:00 +13°C° 0 mm 2 mps 731 mmHg 96%
    05:00 +13°C° 0 mm 2 mps 731 mmHg 94%
    06:00 +12°C° 0 mm 3 mps 732 mmHg 92%
    07:00 +13°C° 0 mm 3 mps 732 mmHg 90%
    08:00 +13°C° 0.1 mm 3 mps 732 mmHg 86%
    09:00 +14°C° 0.1 mm 3 mps 732 mmHg 82%
    10:00 +14°C° 0.1 mm 3 mps 732 mmHg 79%
    11:00 +15°C° 0.2 mm 4 mps 732 mmHg 71%
    12:00 +17°C° 0.2 mm 4 mps 732 mmHg 64%
    13:00 +18°C° 0.2 mm 4 mps 732 mmHg 57%
    14:00 +18°C° 0.2 mm 4 mps 732 mmHg 59%
    15:00 +18°C° 0.2 mm 4 mps 732 mmHg 60%
    16:00 +18°C° 0.2 mm 4 mps 731 mmHg 61%
    17:00 +17°C° 0.3 mm 4 mps 732 mmHg 67%
    18:00 +16°C° 0.3 mm 3 mps 732 mmHg 73%
    19:00 +14°C° 0.3 mm 3 mps 732 mmHg 78%
    20:00 +13°C° 0 mm 3 mps 733 mmHg 81%
    21:00 +12°C° 0 mm 3 mps 733 mmHg 84%
    22:00 +10°C° 0 mm 3 mps 734 mmHg 86%
    23:00 +10°C° 0 mm 3 mps 734 mmHg 88%

    29 May, Wednesday

    Time Temperature Precipitation Wind Pressure Humidity
    00:00 +9°C° 0 mm 3 mps 734 mmHg 89%
    01:00 +9°C° 0 mm 3 mps 734 mmHg 91%
    02:00 +9°C° 0 mm 3 mps 734 mmHg 92%
    03:00 +8°C° 0 mm 2 mps 735 mmHg 94%
    04:00 +8°C° 0 mm 2 mps 735 mmHg 95%
    05:00 +9°C° 0 mm 2 mps 735 mmHg 92%
    06:00 +10°C° 0 mm 3 mps 736 mmHg 90%
    07:00 +10°C° 0 mm 3 mps 736 mmHg 87%
    08:00 +11°C° 0.1 mm 3 mps 736 mmHg 84%
    09:00 +12°C° 0.1 mm 3 mps 737 mmHg 80%
    10:00 +13°C° 0.1 mm 3 mps 737 mmHg 77%
    11:00 +14°C° 0.3 mm 3 mps 737 mmHg 75%
    12:00 +14°C° 0.3 mm 3 mps 737 mmHg 72%
    13:00 +15°C° 0.3 mm 4 mps 738 mmHg 70%
    14:00 +16°C° 0.5 mm 3 mps 738 mmHg 72%
    15:00 +16°C° 0.5 mm 3 mps 738 mmHg 73%
    16:00 +16°C° 0.5 mm 3 mps 738 mmHg 75%
    17:00 +16°C° 0.4 mm 2 mps 738 mmHg 78%
    18:00 +15°C° 0.4 mm 2 mps 739 mmHg 81%
    19:00 +15°C° 0.4 mm 1 mps 739 mmHg 83%
    20:00 +13°C° 0 mm 1 mps 740 mmHg 85%
    21:00 +12°C° 0 mm 1 mps 740 mmHg 87%
    22:00 +9°C° 0 mm 0 mps 741 mmHg 88%
    23:00 +9°C° 0 mm 0 mps 741 mmHg 89%

    30 May, Thursday

    Time Temperature Precipitation Wind Pressure Humidity
    00:00 +10°C° 0 mm 1 mps 741 mmHg 90%
    01:00 +9°C° 0 mm 1 mps 742 mmHg 91%
    02:00 +9°C° 0 mm 1 mps 742 mmHg 91%
    03:00 +9°C° 0 mm 1 mps 742 mmHg 91%
    04:00 +9°C° 0 mm 1 mps 742 mmHg 92%
    05:00 +10°C° 0 mm 1 mps 743 mmHg 90%
    06:00 +11°C° 0 mm 1 mps 743 mmHg 88%
    07:00 +13°C° 0 mm 1 mps 743 mmHg 86%
    08:00 +14°C° 0.1 mm 1 mps 743 mmHg 78%
    09:00 +16°C° 0.1 mm 1 mps 743 mmHg 70%
    10:00 +19°C° 0.1 mm 1 mps 743 mmHg 63%
    11:00 +18°C° 0.2 mm 2 mps 743 mmHg 60%
    12:00 +19°C° 0.2 mm 2 mps 743 mmHg 57%
    13:00 +20°C° 0.2 mm 2 mps 743 mmHg 54%
    14:00 +20°C° 0.2 mm 2 mps 743 mmHg 56%
    15:00 +20°C° 0.2 mm 3 mps 743 mmHg 57%
    16:00 +20°C° 0.2 mm 3 mps 743 mmHg 58%
    17:00 +19°C° 0.1 mm 3 mps 743 mmHg 63%
    18:00 +18°C° 0.1 mm 2 mps 743 mmHg 67%
    19:00 +17°C° 0.1 mm 2 mps 743 mmHg 72%
    20:00 +16°C° 0 mm 2 mps 744 mmHg 76%
    21:00 +14°C° 0 mm 2 mps 744 mmHg 80%
    22:00 +13°C° 0 mm 2 mps 745 mmHg 85%
    23:00 +12°C° 0 mm 2 mps 745 mmHg 86%

    31 May, Friday

    Time Temperature Precipitation Wind Pressure Humidity
    00:00 +12°C° 0 mm 2 mps 745 mmHg 88%
    01:00 +10°C° 0 mm 2 mps 745 mmHg 90%
    02:00 +12°C° 0 mm 2 mps 745 mmHg 88%
    03:00 +12°C° 0 mm 2 mps 745 mmHg 86%
    04:00 +13°C° 0 mm 2 mps 745 mmHg 84%
    05:00 +13°C° 0.6 mm 2 mps 745 mmHg 87%
    06:00 +13°C° 0.6 mm 2 mps 745 mmHg 89%
    07:00 +13°C° 0.6 mm 2 mps 746 mmHg 92%
    08:00 +14°C° 0.1 mm 2 mps 746 mmHg 90%
    09:00 +15°C° 0.1 mm 2 mps 746 mmHg 88%
    10:00 +16°C° 0.1 mm 2 mps 746 mmHg 86%
    11:00 +17°C° 0.1 mm 3 mps 746 mmHg 84%
    12:00 +17°C° 0.1 mm 3 mps 746 mmHg 82%
    13:00 +18°C° 0.1 mm 3 mps 746 mmHg 80%
    14:00 +19°C° 0.1 mm 3 mps 746 mmHg 78%
    15:00 +19°C° 0.1 mm 3 mps 745 mmHg 77%
    16:00 +19°C° 0.1 mm 2 mps 745 mmHg 75%
    17:00 +19°C° 0.1 mm 2 mps 745 mmHg 79%
    18:00 +19°C° 0.1 mm 2 mps 745 mmHg 83%
    19:00 +20°C° 0.1 mm 1 mps 745 mmHg 87%
    20:00 +19°C° 0.1 mm 1 mps 746 mmHg 89%
    21:00 +18°C° 0.1 mm 1 mps 746 mmHg 91%
    22:00 +16°C° 0.1 mm 1 mps 746 mmHg 94%
    23:00 +15°C° 0 mm 1 mps 746 mmHg 94%
    Show more